Regional Weather Roundup
Issued by NWS Goodland, KS

Home | Current Version | Previous Version | Text Only | Print | Product List | Glossary Off
Versions: 1 2 3 4 5 6 7 8 9 10 11 12 13 14 15 16 17 18 19 20 21 22 23 24 25 26 27 28 29 30 31 32 33 34 35 36 37 38 39 40 41 42 43 44 45 46 47 48 49 50

000
ASUS43 KGLD 271408
RWRGLD

GOODLAND FORECAST AREA HOURLY WEATHER ROUNDUP
NATIONAL WEATHER SERVICE GOODLAND KS
700 AM MST TUE JAN 27 2015

...OFFICIAL OBSERVATIONS...

CITY           SKY/WX    TMP DP  RH WIND       PRES   REMARKS
GOODLAND KS    CLEAR     43  27  53 W12       30.10R
HILL CITY KS   PTCLDY    31  26  82 W7        30.08R
IMPERIAL NEB   CLEAR     36  27  69 W7        30.07S
MCCOOK NEB     CLEAR     35  29  78 W13       30.07R
AKRON CO       PTCLDY    42  27  55 W15       30.12R
BURLINGTON CO  CLEAR     40  26  57 W9        30.13R
LIMON CO       PTCLDY    34  24  67 N7        30.18R
$$

...UNOFFICIAL OBSERVATIONS...

CITY           SKY/WX    TMP DP  RH WIND       PRES   REMARKS
COLBY KS       CLEAR     37  32  81 W12       30.09S
GOVE KS          N/A     31  32 100 MISG        N/A
NORTON KS      CLEAR     28  25  86 W5        30.05S
SHARON SPRINGS   N/A     38  29  69 W9          N/A
KIT CARSON CO    N/A     34  24  65 MISG        N/A
YUMA CO          N/A     40  28  63 W13         N/A
$$



USA.gov is the U.S. government's official web portal to all federal, state and local government web resources and services.